Tracking 17143 objects as of 30-June-2015
HD Live streaming from Space Station

UNAMSAT

Track UNAMSAT now!
10-day predictions
UNAMSAT is classified as:


NORAD ID: 24305
Int'l Code: 1996-052B
Perigee: 972.1 km
Apogee: 1,014.5 km
Inclination: 82.9 °
Period: 104.8 minutes
Semi major axis: 7364 km
RCS: 0.174 m2 (medium)
Launch date: September 5, 1996
Source: Mexico (MEX)
Your satellite tracking list
Your tracking list is empty





NASA's NSSDC Master Catalog

Two Line Element Set (TLE):
1 24305U 96052B   15180.69096214  .00000034  00000-0  20026-4 0  9999
2 24305 082.9358 164.1483 0028758 241.4493 243.5563 13.73746002943181

Source of the keplerian elements: AFSPC

N2YO: 395